• Join FlightAware (Why Join?)
  • Login
  • US Flag 
11:23PM EST


 

Airport Tracker/Info


-or-


 

Live Flight TrackerFlight Track Log ✈ UAL4476 ✈ 09-Apr-2013 ✈ KCLE - KBOS

Flight Track Log - Related Links

Times and Time Zones

All times are in EDT time to prevent confusion due to time zone crossing. See the UAL4476 flight status page for this flight to view local times or setup timezone preferences in your user account.

Time Position Orientation Groundspeed Altitude Reporting Facility
EDT Latitude Longitude Course Direction KTS MPH feet Rate Location/Type
09:43AM 41.4194 -81.8375 25° Northeast 157 181 1,900  Level Cleveland Center
09:44AM 41.4406 -81.8242 25° Northeast 176 203 2,800 1,532 Climbing Cleveland Center
09:44AM 41.4572 -81.8133 26° Northeast 212 244 3,100 1,636 Climbing Cleveland Center
09:45AM 41.5161 -81.7700 29° Northeast 232 267 4,900 2,050 Climbing Cleveland Center
09:46AM 41.5772 -81.7044 39° Northeast 261 300 7,200 2,500 Climbing Cleveland Center
09:47AM 41.6383 -81.6389 39° Northeast 281 323 9,900 2,200 Climbing Cleveland Center
09:48AM 41.7014 -81.5706 39° Northeast 286 329 11,600 1,600 Climbing Cleveland Center
09:49AM 41.7708 -81.4936 40° Northeast 306 352 13,100 1,350 Climbing Cleveland Center
09:50AM 41.8339 -81.4164 42° Northeast 326 375 14,300 1,250 Climbing Cleveland Center
09:51AM 41.8619 -81.2828 74° East 341 392 15,600 1,250 Climbing Cleveland Center
09:52AM 41.8836 -81.1381 79° East 367 422 16,800 1,150 Climbing Cleveland Center
09:53AM 41.9050 -80.9961 79° East 388 447 17,900 1,150 Climbing Cleveland Center
09:54AM 41.9283 -80.8511 78° East 394 453 19,100 1,250 Climbing Cleveland Center
09:55AM 41.9536 -80.6864 78° East 400 460 20,400 1,650 Climbing Cleveland Center
09:56AM 41.9786 -80.5328 78° East 408 470 22,400 1,900 Climbing Cleveland Center
09:57AM 42.0014 -80.3903 78° East 408 470 24,200 1,500 Climbing Cleveland Center
09:58AM 42.0261 -80.2450 77° East 398 458 25,400 1,200 Climbing Cleveland Center
09:59AM 42.0464 -80.0967 80° East 404 465 26,600 1,000 Climbing Cleveland Center
10:00AM 42.0708 -79.9425 78° East 404 465 27,400 950 Climbing Cleveland Center
10:01AM 42.0928 -79.7858 79° East 415 478 28,500 1,150 Climbing Cleveland Center
10:02AM 42.1144 -79.6286 79° East 415 478 29,700 1,150 Climbing Cleveland Center
10:03AM 42.1381 -79.4772 78° East 415 478 30,800 650 Climbing Cleveland Center
10:04AM 42.1614 -79.3169 79° East 415 478 31,000 -250 Climbing Cleveland Center
10:05AM 42.1844 -79.1514 79° East 433 498 30,300 -1,000 Descending Cleveland Center
10:06AM 42.2053 -78.9825 80° East 441 507 29,000 -950 Descending Cleveland Center
10:07AM 42.2261 -78.8333 79° East 452 520 28,400 -750 Descending Cleveland Center
10:08AM 42.2464 -78.6675 81° East 447 514 27,500 -700 Descending Cleveland Center
10:09AM 42.2664 -78.5042 81° East 447 514 27,000 -250 Descending Cleveland Center
10:10AM 42.2864 -78.3433 80° East 447 514 27,000  Level Cleveland Center
10:11AM 42.3058 -78.1769 81° East 447 514 27,000  Level Cleveland Center
10:12AM 42.3253 -78.0106 81° East 447 514 27,000  Level Cleveland Center
10:13AM 42.3444 -77.8469 81° East 447 514 27,000  Level Cleveland Center
10:14AM 42.3656 -77.6858 80° East 447 514 27,000  Level Cleveland Center
10:16AM 42.4044 -77.3533 81° East 453 521 27,000  Level Boston Center
10:17AM 42.4242 -77.1858 81° East 447 514 27,000  Level Boston Center
10:18AM 42.4433 -77.0214 81° East 442 509 27,000  Level Boston Center
10:19AM 42.4603 -76.8592 82° East 442 509 27,000  Level Boston Center
10:20AM 42.4792 -76.6917 81° East 442 509 27,000  Level Boston Center
10:21AM 42.4958 -76.5208 82° East 442 509 27,000  Level Boston Center
10:22AM 42.5142 -76.3558 81° East 442 509 27,000  Level Boston Center
10:23AM 42.5303 -76.1878 83° East 442 509 27,000  Level Boston Center
10:24AM 42.5481 -76.0225 82° East 442 509 27,000  Level Boston Center
10:25AM 42.5639 -75.8514 83° East 447 514 27,000  Level Boston Center
10:26AM 42.5792 -75.6831 83° East 447 514 27,000  Level Boston Center
10:27AM 42.5944 -75.5144 83° East 447 514 27,000 -51 Level Boston Center
10:28AM 42.6114 -75.3431 82° East 447 514 26,900  Descending Boston Center
10:29AM 42.6300 -75.1747 81° East 447 514 27,000 50 Climbing Boston Center
10:30AM 42.6444 -75.0117 83° East 442 509 27,000  Level Boston Center
10:31AM 42.6583 -74.8428 84° East 442 509 27,000  Level Boston Center
10:32AM 42.6722 -74.6794 83° East 442 509 27,000  Level Boston Center
10:33AM 42.6878 -74.5133 83° East 442 509 27,000  Level Boston Center
10:34AM 42.6989 -74.3528 85° East 442 509 27,000  Level Boston Center
10:35AM 42.7142 -74.1836 83° East 442 509 27,000  Level Boston Center
10:36AM 42.7292 -74.0228 83° East 442 509 27,000  Level Boston Center
10:37AM 42.7397 -73.8564 85° East 442 509 27,000  Level Boston Center
10:38AM 42.7375 -73.6925 91° East 442 509 27,000  Level Boston Center
10:39AM 42.7183 -73.5197 99° East 442 509 27,000 -100 Level Boston Center
10:40AM 42.7011 -73.3497 98° East 447 514 26,800 -605 Descending Boston Center
10:41AM 42.6814 -73.1828 99° East 447 514 25,800 -992 Descending Boston Center
10:42AM 42.6658 -73.0161 97° East 447 514 24,800 -1,041 Descending Boston Center
10:43AM 42.6456 -72.8467 99° East 452 520 23,700 -1,220 Descending Boston Center
10:44AM 42.6253 -72.6828 99° East 445 512 22,400 -1,400 Descending Boston Center
10:45AM 42.6025 -72.5022 100° East 435 501 20,900 -1,463 Descending Boston Center
10:46AM 42.5817 -72.3386 100° East 435 501 19,400 -1,729 Descending Boston Center
10:47AM 42.5628 -72.1978 100° East 435 501 17,500 -2,136 Descending Boston Center
10:48AM 42.5433 -72.0314 99° East 424 488 15,200 -2,164 Descending Boston Center
10:49AM 42.5306 -71.9047 98° East 390 449 13,100 -2,050 Descending Boston Center
10:50AM 42.5172 -71.7528 97° East 368 423 11,100 -1,050 Descending Boston Center
10:51AM 42.5058 -71.6347 97° East 363 418 11,000 -545 Descending Boston Center
10:52AM 42.5028 -71.4939 92° East 342 394 10,000 -1,344 Descending Boston Center
10:53AM 42.5333 -71.3667 72° East 300 345 8,200 -1,550 Descending KA90
10:54AM 42.5500 -71.2833 75° East 276 318 6,900 -1,100 Descending KA90
10:55AM 42.5833 -71.1667 69° East 255 293 6,000 -500 Descending KA90
10:56AM 42.6000 -71.1000 71° East 248 285 5,900 -690 Descending KA90
10:57AM 42.6292 -71.0319 60° Northeast 248 285 4,700 -950 Descending Boston Center
10:58AM 42.6167 -70.9333 100° East 239 275 4,000 -492 Descending KA90
10:59AM 42.5667 -70.9167 166° South 205 236 3,700 -450 Descending KA90
11:00AM 42.5167 -70.9333 194° South 195 224 3,100 -850 Descending KA90
11:01AM 42.4667 -70.9500 194° South 196 226 2,000 -952 Descending KA90
11:02AM 42.4167 -70.9833 206° Southwest 142 163 1,100 -800 Descending KA90
11:03AM 42.3833 -71.0000 200° South 138 159 400 -778 Descending KA90
11:05AM 42.3630 -71.0064 200° South  Level Estimated
11:12AM 42.3630 -71.0064 North  Level Estimated